Location: Castellar de la Frontera
(36.3200°N, 5.4500°W)
Time: 20:43:10
(UTC+02:00)

ISS - Visible Passes

Search period start: 20 October 2019 00:00
Search period end: 29 October 2019 23:00
Orbit: 411 x 421 km, 51.6° (Epoch: 20 October)

Date Brightness Start Highest point End Pass type
(mag) Time Alt. Az. Time Alt. Az. Time Alt. Az.
23 Oct -1.5 07:32:49 10° S 07:35:41 26° SE 07:38:32 10° ENE visible
24 Oct -0.8 06:45:22 10° SSE 06:47:14 14° SE 06:49:06 10° E visible
25 Oct -3.8 07:32:25 16° SW 07:35:01 89° SE 07:38:23 10° NE visible
26 Oct -2.7 06:46:39 44° ESE 06:46:39 44° ESE 06:49:40 10° ENE visible
27 Oct -0.1 05:00:39 10° ENE 05:00:39 10° ENE 05:00:40 10° ENE visible
27 Oct -2.8 06:33:35 26° WNW 06:34:32 31° NW 06:37:35 10° NNE visible
28 Oct -2.0 05:47:24 26° NNE 05:47:24 26° NNE 05:49:07 10° NE visible
29 Oct -1.7 06:34:00 15° NNW 06:34:14 15° NNW 06:36:16 10° NNE visible
